SCP
0 -0 0 -0 0 0 0 0 0 0 0 0 0 0 0 0 0 0 0 0 0 0 0 1 1 1 1 1 0 0 0 0 0 0 0 0 0 0 0 0 0 0 0 0 0 0 0 0 0
-0 -0 -0 -0 0 0 0 0 0 0 0 0 0 0 0 0 0 0 0 0 0 0 0 1 1 1 1 1 1 1 0 0 0 0 0 0 0 0 0 0 0 0 0 0 0 0 0 0 0
0 0 0 0 0 0 0 0 0 -0 -0 0 0 0 0 0 0 0 0 0 0 0 0 0 1 1 1 1 1 1 1 1 0 0 0 0 0 0 0 0 0 0 0 0 0 0 0 0 0
0 0 0 0 0 0 0 0 0 0 0 0 0 0 0 0 0 0 0 0 0 0 0 0 1 1 1 1 1 1 1 1 0 0 0 0 0 0 0 0 0 0 0 0 0 0 0 0 0
0 0 0 0 0 0 0 0 0 0 0 0 0 0 0 0 0 0 0 0 0 0 0 0 1 1 1 1 1 1 1 1 1 0 0 0 0 0 0 0 0 0 0 0 0 0 0 0 0
0 0 0 0 0 0 0 0 0 0 0 0 0 0 0 0 0 0 0 0 0 0 0 1 1 1 1 1 1 1 1 1 1 0 0 0 0 0 0 0 0 0 0 0 0 0 0 0 0
0 0 0 0 0 0 0 0 0 0 0 0 0 0 0 0 0 0 0 0 0 0 0 1 1 1 1 1 2 2 2 1 1 0 0 0 0 0 0 0 0 0 0 0 0 0 0 0 0
0 0 0 0 0 0 0 0 0 0 0 0 0 0 0 0 0 0 0 0 0 1 1 1 1 2 2 3 2 2 2 1 0 0 0 0 0 0 0 0 0 0 0 0 0 0 0 0 0
0 0 0 0 0 0 0 0 0 0 0 0 0 0 0 0 0 0 0 0 0 0 0 1 1 1 1 1 2 2 1 0 0 0 0 0 0 0 0 0 0 0 0 0 0 0 0 0 0
0 0 0 0 0 0 0 0 0 0 0 0 0 0 0 0 0 0 0 0 0 0 0 0 0 0 0 1 1 0 0 0 0 0 0 0 0 0 0 0 0 0 0 0 0 -0 0 0 0
0 0 0 0 0 0 0 0 0 0 0 0 0 0 0 0 0 0 0 0 0 0 0 0 0 0 0 0 0 0 0 0 0 0 0 0 0 0 0 0 0 0 0 0 0 0 0 0 0
0 0 0 0 0 0 0 0 0 0 0 0 0 0 0 0 0 0 0 0 0 0 0 0 0 0 0 0 0 0 0 0 0 0 0 0 0 0 0 0 0 0 0 0 0 0 0 0 0
0 0 0 0 0 0 0 0 -0 -0 0 0 0 0 0 0 0 0 0 0 0 0 0 0 0 0 0 0 0 0 0 0 0 0 0 0 0 0 0 0 0 0 0 0 0 0 0 0 0
0 0 0 0 0 0 0 -0 -0 0 0 0 0 0 0 0 0 0 0 0 0 0 0 0 0 0 0 0 0 0 0 0 0 0 0 0 0 0 0 0 0 0 0 0 0 0 0 0 0
0 0 0 -0 -0 0 0 -0 -0 0 0 0 0 0 0 0 0 0 -0 0 0 0 0 0 0 0 0 0 0 0 0 0 0 0 0 0 0 0 0 0 0 0 0 0 0 0 0 0 0
0 0 0 0 0 0 0 -0 -0 0 0 0 0 -0 0 -0 0 -0 0 0 0 0 0 0 0 0 0 0 0 0 0 0 0 0 0 0 0 0 0 0 0 0 0 0 0 0 0 0 0
0 0 0 0 0 0 0 -0 0 0 0 0 0 -0 0 0 0 0 0 0 0 0 0 0 0 0 0 0 0 0 0 0 0 0 0 0 0 0 0 0 0 0 0 0 0 0 0 0 0
0 0 0 0 0 0 0 -0 0 0 0 -0 0 -0 0 -0 -0 0 0 0 0 0 0 0 0 0 0 0 0 0 0 0 0 0 0 0 0 0 0 0 0 0 0 0 0 0 0 0 0
0 0 0 -0 0 0 0 0 0 -0 -0 -0 -0 -0 -0 0 0 0 0 0 0 0 0 0 0 0 0 0 0 0 0 0 0 0 0 0 0 0 0 0 0 0 0 0 0 0 -0 0 0
0 0 -0 -0 -0 0 0 -0 0 -0 -0 -0 -0 -0 0 0 0 0 0 0 0 0 0 0 0 0 0 0 0 0 0 0 0 0 0 0 0 0 0 0 0 0 0 0 0 0 0 0 0
0 0 -0 0 -0 0 -0 -0 -0 -0 -0 0 -0 0 0 0 0 0 0 0 0 0 0 0 0 0 0 0 0 0 0 0 0 0 0 0 0 0 0 0 0 0 0 0 0 0 0 0 0
0 0 0 -0 0 0 0 -0 0 -0 0 -0 -0 0 0 0 0 0 0 0 0 0 0 0 0 0 0 0 0 0 0 0 0 0 0 0 0 0 0 0 0 0 0 0 0 0 0 0 0
0 0 0 0 0 0 0 -0 -0 0 -0 -0 -0 0 -0 -0 0 0 0 0 0 0 0 0 0 0 0 0 0 0 0 0 0 0 0 0 0 0 0 0 0 -0 0 0 0 0 0 0 0
0 0 0 0 0 -0 -0 0 0 -0 0 0 -0 0 0 0 0 0 0 0 0 0 0 0 0 0 0 0 0 0 0 0 0 0 0 0 0 -0 -0 0 -0 0 0 0 0 0 0 0 0
0 0 0 0 0 -0 -0 -0 0 0 0 -0 -0 0 0 0 0 -0 -0 0 0 0 0 0 0 0 0 0 0 0 0 0 0 0 0 0 0 -0 -0 -0 0 0 0 0 0 0 0 0 0
0 0 0 0 0 0 0 -0 -0 0 -0 -0 -0 0 -0 0 0 0 0 0 0 0 0 0 0 0 0 0 0 0 0 0 0 0 0 0 -0 -0 -0 -0 0 0 0 0 0 0 0 0 0
0 0 0 0 0 0 0 0 0 0 0 -0 -0 -0 -0 0 0 0 0 0 0 0 0 0 0 0 0 0 0 0 0 0 0 0 0 0 -0 -0 0 0 0 0 0 0 0 0 0 0 0
0 0 0 0 0 0 0 0 -0 0 -0 -0 -0 -0 0 0 0 0 0 0 0 0 0 0 0 0 0 0 0 0 0 0 0 0 0 0 -0 0 0 -0 0 0 0 0 0 0 0 0 0
0 -0 0 0 0 0 -0 -0 0 0 -0 -0 -0 -0 -0 0 -0 -0 0 0 0 0 0 0 0 0 0 0 0 0 0 0 0 0 0 0 0 0 0 0 0 0 0 0 0 0 0 0 0
0 0 0 0 0 0 0 0 0 -0 -0 -0 -0 -0 0 0 -0 -0 0 0 0 -0 0 0 0 0 0 0 0 0 0 0 0 0 0 0 0 0 0 0 0 0 0 0 0 0 0 0 0
Wind_Speed_500mb
17 18 16 4 4 7 9 13 7 15 7 15 6 8 12 5 11 9 31 32 37 36 42 44 34 24 22 20 17 17 20 24 26 25 25 24 23 23 22 24 26 25 24 20 20 26 31 31 29
15 17 7 4 6 1 10 10 13 17 18 2 10 17 2 3 13 12 39 35 33 27 30 33 29 23 20 18 19 20 24 28 31 31 31 30 23 25 26 27 28 28 28 28 25 22 28 29 29
20 16 3 6 5 10 9 8 12 26 48 15 12 7 6 6 16 12 19 34 34 25 22 21 21 22 20 20 21 22 26 30 35 36 36 31 30 28 29 30 30 30 32 33 34 30 27 30 31
23 7 3 5 17 14 10 21 30 16 10 13 10 4 8 15 8 14 21 33 32 26 20 22 24 23 23 21 20 22 26 31 36 36 36 37 37 37 35 35 38 39 35 34 36 37 36 31 33
20 5 1 7 13 11 12 38 28 12 8 3 17 9 9 29 22 21 30 37 30 27 25 26 26 22 18 16 18 22 24 28 31 33 35 38 40 44 42 43 41 40 40 39 39 38 42 39 34
9 5 2 9 11 11 14 50 32 19 17 7 6 13 11 23 39 31 39 34 30 22 27 27 28 22 18 17 20 23 26 27 26 28 30 33 38 44 48 49 51 49 45 44 44 43 46 43 38
12 8 9 9 17 19 13 11 5 8 18 16 16 13 10 31 43 40 45 36 31 32 29 30 28 22 22 23 25 27 28 32 25 24 25 30 38 42 47 52 55 54 53 49 51 48 49 48 45
14 8 6 11 8 17 13 7 18 17 29 13 12 6 13 30 44 49 45 39 35 37 33 29 28 26 25 29 31 32 32 34 27 26 29 35 30 32 31 31 36 41 47 49 47 49 54 54 47
18 5 13 14 14 16 38 5 38 32 25 20 20 31 40 32 55 53 51 48 45 42 37 34 34 34 32 32 32 33 34 33 30 29 31 26 27 23 19 24 26 28 27 30 35 39 45 54 51
17 11 21 26 14 14 25 29 53 28 42 26 49 49 40 29 69 69 65 57 53 46 42 43 41 39 34 32 31 30 33 30 31 30 27 24 32 24 23 21 21 22 25 29 34 34 38 44 50
17 27 47 41 57 33 29 43 68 28 34 53 51 55 24 32 76 75 68 55 42 40 46 50 49 43 36 28 28 28 23 25 26 28 27 28 31 26 22 20 19 21 26 32 28 30 38 42 45
9 33 57 70 64 40 22 55 43 56 52 80 80 57 25 44 73 78 69 58 51 50 54 55 54 45 36 26 26 18 16 17 18 20 25 31 26 25 22 19 19 20 22 22 24 25 31 36 40
16 40 60 57 55 58 65 52 52 61 87 88 83 62 36 49 71 76 66 57 54 58 62 60 56 46 33 24 19 13 16 16 15 19 23 27 26 25 22 20 21 25 24 22 23 26 31 37 43
20 31 52 55 61 66 49 56 59 77 73 76 77 59 37 51 68 77 76 69 65 62 68 67 57 41 27 20 12 10 11 12 17 20 23 26 27 27 27 26 21 24 26 26 26 26 30 38 39
35 26 36 49 60 43 46 42 43 74 72 71 81 69 56 55 71 85 80 78 69 67 64 66 53 38 25 15 12 10 13 15 23 22 24 24 25 25 27 27 27 23 26 27 26 27 29 35 37
8 7 20 15 29 45 18 55 49 76 68 69 71 69 62 58 76 85 85 80 71 65 65 58 45 31 20 14 10 8 12 20 24 25 26 25 25 25 25 28 27 24 27 26 27 29 29 34 37
5 26 25 33 21 12 16 29 44 49 41 51 66 73 66 69 83 90 91 82 74 65 60 51 38 25 16 12 8 8 14 24 24 23 22 23 25 24 27 24 22 24 24 25 26 29 29 31 34
23 19 31 35 6 22 31 29 44 68 34 46 65 76 70 78 85 86 91 80 74 64 55 43 30 22 16 13 8 9 17 25 27 24 18 20 20 23 25 22 23 23 20 23 26 30 29 30 31
26 20 33 33 11 15 17 18 34 47 37 42 56 68 72 81 76 70 83 73 74 65 54 40 28 24 18 14 9 10 19 25 23 22 16 18 21 20 21 21 22 21 18 17 18 32 32 31 30
25 21 34 31 33 7 26 30 34 36 31 51 66 64 70 63 53 45 59 73 80 68 48 34 28 22 18 12 8 13 21 20 26 19 14 17 20 19 20 22 18 16 14 15 22 31 36 34 32
34 39 39 37 22 14 19 24 34 39 30 48 50 50 45 51 45 47 59 78 76 62 44 32 29 21 16 9 6 13 18 23 25 18 12 18 13 9 15 20 17 15 12 18 24 30 36 36 33
37 36 39 32 16 18 8 10 11 16 22 14 30 29 45 46 49 50 71 80 72 52 36 33 27 19 13 9 6 12 18 24 18 13 11 7 2 5 11 15 15 14 15 20 24 29 33 33 30
38 25 26 16 16 11 36 8 11 9 19 21 21 33 36 33 42 56 71 79 61 43 36 33 25 17 12 14 9 10 18 20 13 10 7 3 4 8 14 17 17 16 16 20 23 29 30 28 28
18 7 7 14 3 18 41 10 22 12 17 11 11 23 18 31 45 57 69 64 48 38 36 32 25 15 13 14 8 12 17 16 13 12 10 9 12 15 21 21 17 15 14 14 19 27 30 27 25
21 12 5 6 9 16 16 11 29 21 21 24 20 12 23 37 47 59 68 63 49 42 39 32 25 16 14 16 9 11 16 13 15 16 12 5 10 21 27 24 17 15 15 14 14 18 23 18 24
47 33 12 12 8 9 14 15 22 20 26 47 42 22 35 40 46 55 68 59 48 43 39 32 21 18 16 16 9 5 14 11 13 17 12 2 14 22 29 24 18 15 12 9 9 15 23 18 27
27 30 25 5 1 3 8 14 18 6 6 7 13 36 44 47 53 60 63 54 46 43 40 30 23 19 21 15 7 2 4 13 13 19 12 7 16 23 26 22 20 10 13 8 7 11 12 13 25
18 18 19 7 9 7 9 9 13 6 7 9 14 21 38 46 52 59 63 54 42 39 35 28 21 20 22 15 9 4 3 14 16 16 12 12 17 24 23 20 20 10 12 8 7 5 5 10 18
12 32 5 15 11 12 2 13 15 19 18 23 19 41 53 57 60 65 63 51 40 38 34 27 25 25 20 15 11 8 1 11 11 12 6 11 13 20 22 19 18 18 13 8 7 10 10 14 18
47 39 40 16 16 4 9 24 8 14 18 17 21 47 53 60 63 65 62 52 46 43 36 31 28 28 23 17 17 9 4 8 8 11 4 7 16 21 22 19 21 20 18 14 11 14 13 12 16
Wind_Direction_500mb
157 141 147 132 44 62 264 262 271 283 292 229 174 181 203 157 157 211 161 168 175 181 188 194 200 206 223 228 243 267 269 264 258 264 262 257 259 256 266 274 280 282 280 273 256 257 249 246 241
151 150 158 92 111 207 261 245 253 254 247 316 150 134 214 199 166 162 162 176 175 177 190 195 206 210 219 229 247 266 267 266 263 265 264 258 252 249 258 267 271 271 274 275 269 253 255 248 245
163 155 140 121 175 203 230 246 269 284 299 212 153 220 254 240 199 187 187 181 173 177 187 194 205 215 223 233 258 273 275 272 265 269 267 267 261 264 267 271 269 261 261 269 269 262 251 252 246
170 182 134 133 239 258 246 282 292 283 280 228 168 164 235 173 207 203 189 183 177 186 194 196 202 212 221 239 264 279 285 276 274 270 263 262 268 271 272 265 258 261 260 257 258 263 261 252 249
162 159 164 244 248 254 249 267 298 281 249 176 173 202 239 210 208 201 195 183 189 194 201 202 205 212 227 251 270 279 288 289 277 266 262 264 265 275 273 269 262 260 260 258 254 252 254 258 247
150 134 53 253 231 254 273 282 282 260 306 226 186 160 216 213 211 203 195 193 195 217 209 208 209 214 233 251 287 289 291 304 284 273 267 270 271 271 269 266 264 263 258 256 255 251 250 251 250
154 107 230 252 281 299 217 254 267 330 308 279 235 155 246 225 214 207 196 197 203 216 219 213 215 221 231 259 280 286 292 305 295 280 274 279 278 274 270 264 260 260 259 255 251 248 246 248 246
196 119 257 240 226 265 259 283 302 311 306 330 182 230 254 257 200 193 197 202 214 217 225 222 218 220 234 261 273 280 295 299 292 283 282 290 284 280 270 264 260 259 257 257 253 245 239 243 241
187 123 251 237 192 244 281 2 296 311 281 295 259 250 285 285 194 194 196 200 212 218 222 225 223 223 233 257 267 274 291 290 278 275 285 286 305 299 280 269 266 263 263 267 260 245 238 237 235
183 176 231 230 211 244 282 302 292 307 297 279 284 285 295 254 198 199 204 206 214 219 225 228 228 222 240 253 261 277 286 283 277 284 290 294 310 288 287 273 264 261 255 261 252 241 235 235 230
196 222 233 265 251 252 270 286 282 281 289 285 275 291 281 233 200 205 212 217 226 228 226 230 224 222 236 246 263 276 280 288 287 288 286 292 296 278 289 275 274 259 257 258 254 247 232 233 225
256 232 241 249 264 274 259 272 277 278 274 287 289 281 258 221 208 210 214 217 224 225 224 223 220 223 233 244 273 270 297 299 288 288 282 283 279 278 279 277 264 259 255 265 251 249 234 229 228
223 248 252 262 270 275 276 267 266 279 283 286 283 277 253 223 217 218 220 220 227 227 224 221 216 220 232 258 266 274 291 299 298 298 289 276 276 273 280 277 271 265 259 265 261 249 234 227 228
238 260 263 261 262 262 266 273 278 274 278 279 283 265 258 234 227 224 216 221 226 226 223 220 215 217 230 255 255 278 310 301 303 302 296 285 280 274 276 259 273 272 264 264 263 250 238 225 225
267 271 276 262 262 261 275 277 268 276 279 275 275 268 265 253 229 227 224 223 226 228 222 211 209 215 232 251 257 278 305 320 315 302 291 288 280 277 269 259 267 273 266 260 257 245 233 219 217
358 286 269 251 237 255 218 269 269 272 272 270 273 274 269 254 231 230 227 227 224 219 207 203 207 216 229 244 251 298 327 326 316 298 284 282 282 274 273 266 258 264 257 259 259 236 231 216 214
262 257 270 280 218 246 180 278 276 283 268 265 275 276 268 244 232 227 228 226 224 214 205 200 206 217 230 240 258 307 328 331 323 311 291 282 278 274 263 259 250 252 259 258 248 229 224 218 213
218 238 247 250 207 218 250 257 276 279 290 276 278 276 259 236 234 230 228 223 218 207 203 206 209 215 223 228 247 309 324 325 322 313 289 279 283 265 256 249 232 245 261 256 241 221 214 211 202
225 238 247 261 231 229 237 250 275 285 291 278 280 268 255 245 239 235 231 225 205 202 200 201 211 208 215 215 248 313 326 326 327 323 294 288 280 271 251 228 230 246 260 251 232 206 200 203 199
235 253 259 279 267 261 278 274 274 286 278 275 268 262 254 242 239 232 224 208 200 199 192 200 202 202 196 217 255 314 321 327 327 324 300 295 284 268 240 218 230 241 239 224 189 185 195 196 193
227 232 249 250 292 219 277 280 279 280 291 279 259 260 252 248 253 229 205 197 194 194 189 202 198 192 192 213 265 311 324 322 324 330 303 299 298 262 224 206 216 217 208 186 181 188 190 194 200
234 222 242 254 274 272 126 286 292 280 289 285 261 230 247 250 243 215 196 189 191 185 190 195 191 184 193 210 254 314 333 334 331 341 330 305 334 179 169 196 192 185 187 186 182 186 190 200 201
239 228 245 252 254 299 275 271 259 269 285 267 265 245 244 242 217 201 193 189 181 181 191 187 182 178 211 222 263 320 339 346 345 349 328 306 204 188 174 166 172 174 178 183 186 188 195 200 201
241 237 276 261 209 256 262 164 281 233 227 264 258 283 264 193 191 193 187 177 174 180 185 183 180 189 207 211 238 324 335 343 356 348 330 301 237 194 167 165 163 162 155 166 176 183 192 206 208
197 118 267 300 203 228 224 189 238 260 244 241 242 232 182 183 186 188 179 176 176 182 180 180 185 208 202 192 221 323 342 343 8 360 343 310 185 182 173 170 158 157 146 153 162 184 186 200 221
212 192 178 203 187 218 187 234 253 236 253 243 241 232 174 179 189 186 179 174 180 180 180 179 193 188 201 199 201 321 341 356 359 355 10 85 170 174 175 174 170 165 168 170 169 177 189 215 197
207 206 187 346 199 73 209 286 315 234 269 193 156 169 177 186 189 183 176 180 181 181 180 182 178 172 189 194 219 213 10 19 6 7 24 118 158 171 172 175 173 183 194 193 183 182 207 207 194
173 153 194 199 220 237 262 251 230 266 215 187 157 166 176 184 183 179 179 180 181 181 178 183 176 175 185 182 161 135 22 10 19 20 61 113 137 161 167 174 179 185 191 188 146 186 173 170 184
171 229 201 163 182 182 156 258 212 220 190 192 199 178 181 184 182 179 180 179 176 176 180 184 179 188 188 181 176 203 286 356 19 17 80 79 150 163 174 184 193 194 182 156 150 148 132 136 162
202 206 212 207 212 232 168 257 248 214 197 168 186 182 185 189 180 181 179 177 179 178 180 185 185 194 188 188 188 177 233 345 22 20 106 108 135 157 172 174 170 170 159 131 133 132 130 138 140
Wind_Speed_850mb
17 18 16 4 4 7 9 13 7 15 7 15 6 8 12 5 11 9 31 32 37 36 42 44 34 24 22 20 17 17 20 24 26 25 25 24 23 23 22 24 26 25 24 20 20 26 31 31 29
15 17 7 4 6 1 10 10 13 17 18 2 10 17 2 3 13 12 39 35 33 27 30 33 29 23 20 18 19 20 24 28 31 31 31 30 23 25 26 27 28 28 28 28 25 22 28 29 29
20 16 3 6 5 10 9 8 12 26 48 15 12 7 6 6 16 12 19 34 34 25 22 21 21 22 20 20 21 22 26 30 35 36 36 31 30 28 29 30 30 30 32 33 34 30 27 30 31
23 7 3 5 17 14 10 21 30 16 10 13 10 4 8 15 8 14 21 33 32 26 20 22 24 23 23 21 20 22 26 31 36 36 36 37 37 37 35 35 38 39 35 34 36 37 36 31 33
20 5 1 7 13 11 12 38 28 12 8 3 17 9 9 29 22 21 30 37 30 27 25 26 26 22 18 16 18 22 24 28 31 33 35 38 40 44 42 43 41 40 40 39 39 38 42 39 34
9 5 2 9 11 11 14 50 32 19 17 7 6 13 11 23 39 31 39 34 30 22 27 27 28 22 18 17 20 23 26 27 26 28 30 33 38 44 48 49 51 49 45 44 44 43 46 43 38
12 8 9 9 17 19 13 11 5 8 18 16 16 13 10 31 43 40 45 36 31 32 29 30 28 22 22 23 25 27 28 32 25 24 25 30 38 42 47 52 55 54 53 49 51 48 49 48 45
14 8 6 11 8 17 13 7 18 17 29 13 12 6 13 30 44 49 45 39 35 37 33 29 28 26 25 29 31 32 32 34 27 26 29 35 30 32 31 31 36 41 47 49 47 49 54 54 47
18 5 13 14 14 16 38 5 38 32 25 20 20 31 40 32 55 53 51 48 45 42 37 34 34 34 32 32 32 33 34 33 30 29 31 26 27 23 19 24 26 28 27 30 35 39 45 54 51
17 11 21 26 14 14 25 29 53 28 42 26 49 49 40 29 69 69 65 57 53 46 42 43 41 39 34 32 31 30 33 30 31 30 27 24 32 24 23 21 21 22 25 29 34 34 38 44 50
17 27 47 41 57 33 29 43 68 28 34 53 51 55 24 32 76 75 68 55 42 40 46 50 49 43 36 28 28 28 23 25 26 28 27 28 31 26 22 20 19 21 26 32 28 30 38 42 45
9 33 57 70 64 40 22 55 43 56 52 80 80 57 25 44 73 78 69 58 51 50 54 55 54 45 36 26 26 18 16 17 18 20 25 31 26 25 22 19 19 20 22 22 24 25 31 36 40
16 40 60 57 55 58 65 52 52 61 87 88 83 62 36 49 71 76 66 57 54 58 62 60 56 46 33 24 19 13 16 16 15 19 23 27 26 25 22 20 21 25 24 22 23 26 31 37 43
20 31 52 55 61 66 49 56 59 77 73 76 77 59 37 51 68 77 76 69 65 62 68 67 57 41 27 20 12 10 11 12 17 20 23 26 27 27 27 26 21 24 26 26 26 26 30 38 39
35 26 36 49 60 43 46 42 43 74 72 71 81 69 56 55 71 85 80 78 69 67 64 66 53 38 25 15 12 10 13 15 23 22 24 24 25 25 27 27 27 23 26 27 26 27 29 35 37
8 7 20 15 29 45 18 55 49 76 68 69 71 69 62 58 76 85 85 80 71 65 65 58 45 31 20 14 10 8 12 20 24 25 26 25 25 25 25 28 27 24 27 26 27 29 29 34 37
5 26 25 33 21 12 16 29 44 49 41 51 66 73 66 69 83 90 91 82 74 65 60 51 38 25 16 12 8 8 14 24 24 23 22 23 25 24 27 24 22 24 24 25 26 29 29 31 34
23 19 31 35 6 22 31 29 44 68 34 46 65 76 70 78 85 86 91 80 74 64 55 43 30 22 16 13 8 9 17 25 27 24 18 20 20 23 25 22 23 23 20 23 26 30 29 30 31
26 20 33 33 11 15 17 18 34 47 37 42 56 68 72 81 76 70 83 73 74 65 54 40 28 24 18 14 9 10 19 25 23 22 16 18 21 20 21 21 22 21 18 17 18 32 32 31 30
25 21 34 31 33 7 26 30 34 36 31 51 66 64 70 63 53 45 59 73 80 68 48 34 28 22 18 12 8 13 21 20 26 19 14 17 20 19 20 22 18 16 14 15 22 31 36 34 32
34 39 39 37 22 14 19 24 34 39 30 48 50 50 45 51 45 47 59 78 76 62 44 32 29 21 16 9 6 13 18 23 25 18 12 18 13 9 15 20 17 15 12 18 24 30 36 36 33
37 36 39 32 16 18 8 10 11 16 22 14 30 29 45 46 49 50 71 80 72 52 36 33 27 19 13 9 6 12 18 24 18 13 11 7 2 5 11 15 15 14 15 20 24 29 33 33 30
38 25 26 16 16 11 36 8 11 9 19 21 21 33 36 33 42 56 71 79 61 43 36 33 25 17 12 14 9 10 18 20 13 10 7 3 4 8 14 17 17 16 16 20 23 29 30 28 28
18 7 7 14 3 18 41 10 22 12 17 11 11 23 18 31 45 57 69 64 48 38 36 32 25 15 13 14 8 12 17 16 13 12 10 9 12 15 21 21 17 15 14 14 19 27 30 27 25
21 12 5 6 9 16 16 11 29 21 21 24 20 12 23 37 47 59 68 63 49 42 39 32 25 16 14 16 9 11 16 13 15 16 12 5 10 21 27 24 17 15 15 14 14 18 23 18 24
47 33 12 12 8 9 14 15 22 20 26 47 42 22 35 40 46 55 68 59 48 43 39 32 21 18 16 16 9 5 14 11 13 17 12 2 14 22 29 24 18 15 12 9 9 15 23 18 27
27 30 25 5 1 3 8 14 18 6 6 7 13 36 44 47 53 60 63 54 46 43 40 30 23 19 21 15 7 2 4 13 13 19 12 7 16 23 26 22 20 10 13 8 7 11 12 13 25
18 18 19 7 9 7 9 9 13 6 7 9 14 21 38 46 52 59 63 54 42 39 35 28 21 20 22 15 9 4 3 14 16 16 12 12 17 24 23 20 20 10 12 8 7 5 5 10 18
12 32 5 15 11 12 2 13 15 19 18 23 19 41 53 57 60 65 63 51 40 38 34 27 25 25 20 15 11 8 1 11 11 12 6 11 13 20 22 19 18 18 13 8 7 10 10 14 18
47 39 40 16 16 4 9 24 8 14 18 17 21 47 53 60 63 65 62 52 46 43 36 31 28 28 23 17 17 9 4 8 8 11 4 7 16 21 22 19 21 20 18 14 11 14 13 12 16
Wind_Direction_850mb
157 141 147 132 44 62 264 262 271 283 292 229 174 181 203 157 157 211 161 168 175 181 188 194 200 206 223 228 243 267 269 264 258 264 262 257 259 256 266 274 280 282 280 273 256 257 249 246 241
151 150 158 92 111 207 261 245 253 254 247 316 150 134 214 199 166 162 162 176 175 177 190 195 206 210 219 229 247 266 267 266 263 265 264 258 252 249 258 267 271 271 274 275 269 253 255 248 245
163 155 140 121 175 203 230 246 269 284 299 212 153 220 254 240 199 187 187 181 173 177 187 194 205 215 223 233 258 273 275 272 265 269 267 267 261 264 267 271 269 261 261 269 269 262 251 252 246
170 182 134 133 239 258 246 282 292 283 280 228 168 164 235 173 207 203 189 183 177 186 194 196 202 212 221 239 264 279 285 276 274 270 263 262 268 271 272 265 258 261 260 257 258 263 261 252 249
162 159 164 244 248 254 249 267 298 281 249 176 173 202 239 210 208 201 195 183 189 194 201 202 205 212 227 251 270 279 288 289 277 266 262 264 265 275 273 269 262 260 260 258 254 252 254 258 247
150 134 53 253 231 254 273 282 282 260 306 226 186 160 216 213 211 203 195 193 195 217 209 208 209 214 233 251 287 289 291 304 284 273 267 270 271 271 269 266 264 263 258 256 255 251 250 251 250
154 107 230 252 281 299 217 254 267 330 308 279 235 155 246 225 214 207 196 197 203 216 219 213 215 221 231 259 280 286 292 305 295 280 274 279 278 274 270 264 260 260 259 255 251 248 246 248 246
196 119 257 240 226 265 259 283 302 311 306 330 182 230 254 257 200 193 197 202 214 217 225 222 218 220 234 261 273 280 295 299 292 283 282 290 284 280 270 264 260 259 257 257 253 245 239 243 241
187 123 251 237 192 244 281 2 296 311 281 295 259 250 285 285 194 194 196 200 212 218 222 225 223 223 233 257 267 274 291 290 278 275 285 286 305 299 280 269 266 263 263 267 260 245 238 237 235
183 176 231 230 211 244 282 302 292 307 297 279 284 285 295 254 198 199 204 206 214 219 225 228 228 222 240 253 261 277 286 283 277 284 290 294 310 288 287 273 264 261 255 261 252 241 235 235 230
196 222 233 265 251 252 270 286 282 281 289 285 275 291 281 233 200 205 212 217 226 228 226 230 224 222 236 246 263 276 280 288 287 288 286 292 296 278 289 275 274 259 257 258 254 247 232 233 225
256 232 241 249 264 274 259 272 277 278 274 287 289 281 258 221 208 210 214 217 224 225 224 223 220 223 233 244 273 270 297 299 288 288 282 283 279 278 279 277 264 259 255 265 251 249 234 229 228
223 248 252 262 270 275 276 267 266 279 283 286 283 277 253 223 217 218 220 220 227 227 224 221 216 220 232 258 266 274 291 299 298 298 289 276 276 273 280 277 271 265 259 265 261 249 234 227 228
238 260 263 261 262 262 266 273 278 274 278 279 283 265 258 234 227 224 216 221 226 226 223 220 215 217 230 255 255 278 310 301 303 302 296 285 280 274 276 259 273 272 264 264 263 250 238 225 225
267 271 276 262 262 261 275 277 268 276 279 275 275 268 265 253 229 227 224 223 226 228 222 211 209 215 232 251 257 278 305 320 315 302 291 288 280 277 269 259 267 273 266 260 257 245 233 219 217
358 286 269 251 237 255 218 269 269 272 272 270 273 274 269 254 231 230 227 227 224 219 207 203 207 216 229 244 251 298 327 326 316 298 284 282 282 274 273 266 258 264 257 259 259 236 231 216 214
262 257 270 280 218 246 180 278 276 283 268 265 275 276 268 244 232 227 228 226 224 214 205 200 206 217 230 240 258 307 328 331 323 311 291 282 278 274 263 259 250 252 259 258 248 229 224 218 213
218 238 247 250 207 218 250 257 276 279 290 276 278 276 259 236 234 230 228 223 218 207 203 206 209 215 223 228 247 309 324 325 322 313 289 279 283 265 256 249 232 245 261 256 241 221 214 211 202
225 238 247 261 231 229 237 250 275 285 291 278 280 268 255 245 239 235 231 225 205 202 200 201 211 208 215 215 248 313 326 326 327 323 294 288 280 271 251 228 230 246 260 251 232 206 200 203 199
235 253 259 279 267 261 278 274 274 286 278 275 268 262 254 242 239 232 224 208 200 199 192 200 202 202 196 217 255 314 321 327 327 324 300 295 284 268 240 218 230 241 239 224 189 185 195 196 193
227 232 249 250 292 219 277 280 279 280 291 279 259 260 252 248 253 229 205 197 194 194 189 202 198 192 192 213 265 311 324 322 324 330 303 299 298 262 224 206 216 217 208 186 181 188 190 194 200
234 222 242 254 274 272 126 286 292 280 289 285 261 230 247 250 243 215 196 189 191 185 190 195 191 184 193 210 254 314 333 334 331 341 330 305 334 179 169 196 192 185 187 186 182 186 190 200 201
239 228 245 252 254 299 275 271 259 269 285 267 265 245 244 242 217 201 193 189 181 181 191 187 182 178 211 222 263 320 339 346 345 349 328 306 204 188 174 166 172 174 178 183 186 188 195 200 201
241 237 276 261 209 256 262 164 281 233 227 264 258 283 264 193 191 193 187 177 174 180 185 183 180 189 207 211 238 324 335 343 356 348 330 301 237 194 167 165 163 162 155 166 176 183 192 206 208
197 118 267 300 203 228 224 189 238 260 244 241 242 232 182 183 186 188 179 176 176 182 180 180 185 208 202 192 221 323 342 343 8 360 343 310 185 182 173 170 158 157 146 153 162 184 186 200 221
212 192 178 203 187 218 187 234 253 236 253 243 241 232 174 179 189 186 179 174 180 180 180 179 193 188 201 199 201 321 341 356 359 355 10 85 170 174 175 174 170 165 168 170 169 177 189 215 197
207 206 187 346 199 73 209 286 315 234 269 193 156 169 177 186 189 183 176 180 181 181 180 182 178 172 189 194 219 213 10 19 6 7 24 118 158 171 172 175 173 183 194 193 183 182 207 207 194
173 153 194 199 220 237 262 251 230 266 215 187 157 166 176 184 183 179 179 180 181 181 178 183 176 175 185 182 161 135 22 10 19 20 61 113 137 161 167 174 179 185 191 188 146 186 173 170 184
171 229 201 163 182 182 156 258 212 220 190 192 199 178 181 184 182 179 180 179 176 176 180 184 179 188 188 181 176 203 286 356 19 17 80 79 150 163 174 184 193 194 182 156 150 148 132 136 162
202 206 212 207 212 232 168 257 248 214 197 168 186 182 185 189 180 181 179 177 179 178 180 185 185 194 188 188 188 177 233 345 22 20 106 108 135 157 172 174 170 170 159 131 133 132 130 138 140